DW4183 Weather Reports


time (UTC)temp
F
wind
direction
speed
knots
gust
knots
rain 1hr
in
rain 24hr
in
rain mn
in
humidity
%
barometer
mb
20260504210101 77 151 0.9 0.0 0.00 0.00 0.00 29 1011.8
20260504204557 77 210 0.9 0.0 0.00 0.00 0.00 31 1011.8
20260504203108 77 140 1.7 0.0 0.00 0.00 0.00 30 1011.9
20260504201557 77 167 0.9 0.0 0.00 0.00 0.00 31 1012.1
20260504200057 77 279 1.7 0.0 0.00 0.00 0.00 33 1012.3
20260504194552 77 190 0.9 0.0 0.00 0.00 0.00 32 1012.5
20260504193053 78 298 1.7 0.0 0.00 0.00 0.00 32 1012.7
20260504191556 78 267 0.9 0.0 0.00 0.00 0.00 32 1012.8
20260504190047 79 274 1.7 0.0 0.00 0.00 0.00 34 1013.2
20260504184543 78 294 0.9 0.0 0.00 0.00 0.00 32 1013.3
20260504183039 76 331 0.9 0.0 0.00 0.00 0.00 32 1013.6
20260504181544 76 283 1.7 0.0 0.00 0.00 0.00 32 1013.9
20260504180037 76 292 0.9 0.0 0.00 0.00 0.00 33 1013.9
20260504174535 76 283 0.9 0.0 0.00 0.00 0.00 35 1013.9
20260504173031 75 211 0.9 0.0 0.00 0.00 0.00 32 1014.0
20260504171529 74 107 0.9 0.0 0.00 0.00 0.00 34 1014.2
20260504150108 61 128 0.9 0.0 0.00 0.00 0.00 54 1016.6
20260504081505 41 27 0.0 0.0 0.00 0.00 0.00 85 1015.7
20260504044548 45 27 0.0 0.0 0.00 0.00 0.00 77 1016.0
20260504043041 46 27 0.0 0.0 0.00 0.00 0.00 76 1015.8
20260504041538 46 27 0.0 0.0 0.00 0.00 0.00 75 1015.8
20260504040044 47 27 0.0 0.0 0.00 0.00 0.00 74 1015.6
20260504034543 47 27 0.0 0.0 0.00 0.00 0.00 74 1015.8
20260504033035 47 27 0.0 0.0 0.00 0.00 0.00 72 1015.8
20260504031535 48 27 0.0 0.0 0.00 0.00 0.00 70 1016.1
20260504030037 48 27 0.0 0.0 0.00 0.00 0.00 69 1015.9
20260504024535 49 29 0.0 0.0 0.00 0.00 0.00 67 1015.9
20260504023033 49 2 0.0 0.0 0.00 0.00 0.00 66 1015.8
20260504021533 50 2 0.0 0.0 0.00 0.00 0.00 63 1015.7
20260504020033 51 26 0.0 0.0 0.00 0.00 0.00 60 1015.3
20260504014534 52 26 0.0 0.0 0.00 0.00 0.00 57 1015.0
20260504013045 53 27 0.0 0.0 0.00 0.00 0.00 53 1014.8
20260504011531 55 27 0.0 0.0 0.00 0.00 0.00 51 1014.7
20260504010031 56 27 0.0 0.0 0.00 0.00 0.00 50 1014.6
20260504004531 57 27 0.0 0.0 0.00 0.00 0.00 49 1014.2
20260504003032 59 2 0.0 0.0 0.00 0.00 0.00 46 1014.1
20260504001530 60 2 0.0 0.0 0.00 0.00 0.00 46 1014.0
20260504000029 61 27 0.0 0.0 0.00 0.00 0.00 45 1014.0
20260503234531 61 27 0.0 0.0 0.00 0.00 0.00 42 1014.0
20260503233035 62 27 0.0 0.0 0.00 0.00 0.00 40 1013.9
20260503231527 63 27 0.0 0.0 0.00 0.00 0.00 37 1014.0
20260503230027 64 27 0.0 0.0 0.00 0.00 0.00 37 1013.9
20260503224526 64 26 0.0 0.0 0.00 0.00 0.00 32 1014.0
20260503223026 64 25 0.0 0.0 0.00 0.00 0.00 33 1014.0
20260503221527 65 24 0.9 0.0 0.00 0.00 0.00 32 1014.1
20260503220023 65 242 0.0 0.0 0.00 0.00 0.00 29 1014.2
20260503214521 67 271 1.7 0.0 0.00 0.00 0.00 29 1014.4
20260503213021 69 274 0.9 0.0 0.00 0.00 0.00 28 1014.7
20260503211527 69 326 1.7 0.0 0.00 0.00 0.00 24 1014.7